User: anonymous   Login
Location: Unspecified
(42.1900°N, 71.3291°W)
Time: 05:24:35
(UTC-04:00)
Language:

Resurs 1-4 Rocket - Orbit

View from above orbital plane
View from above orbital plane
View from above satellite
View from above satellite

Ground track
Ground track

The orbit data is extracted from the following two-line orbital elements,

1 25400U 98043G   16178.88302364  .00000005  00000-0  19828-4 0  9999
2 25400  98.4388 133.4549 0008669 254.3220 105.7004 14.25384243934457
Epoch (UTC): 26 June 2016 21:11:33
Eccentricity: 0.0008669
inclination: 98.4388°
perigee height: 801 km
apogee height: 813 km
right ascension of ascending node: 133.4549°
argument of perigee: 254.3220°
revolutions per day: 14.25384243
mean anomaly at epoch: 105.7004°
orbit number at epoch: 93445

The dashed part of the orbit path shows where the satellite is in the earth's shadow,  

DLR